DateTimeUTC,F1_A11,F1_S11,BsB_S11,BsG_S11,BsR_S11,BbsB_S11,BbsG_S11,BbsR_S11,BaB_A11,BaG_A11,BaR_A11,Tu_S11,T_S11,Uu_S11,U_S11,P_S11,T1_A11
2021-12-07T04:00:00Z,00000200,21000000,,,,,,,0000.30,0000.26,0000.36,19.4,26.5,,00.0,0635.3,31.1
2021-12-07T04:01:00Z,00000200,21000000,,,,,,,0000.09,0000.39,0000.04,19.4,26.5,,00.0,0635.3,31.1
2021-12-07T04:02:00Z,00000200,21000000,,,,,,,0000.41,0000.28,0000.36,19.4,26.5,,00.0,0635.3,31.1
2021-12-07T04:03:00Z,00000200,61000000,,,,,,,0000.34,0000.13,0000.10,19.3,26.5,,00.0,0635.3,31.0
2021-12-07T04:04:00Z,00000200,41000000,-000.55,0000.23,-000.26,0000.18,0000.05,0000.29,0000.19,0000.59,0000.21,19.3,26.2,,00.0,0636.0,31.0
2021-12-07T04:05:00Z,00000200,01000000,-000.28,0000.28,-000.29,0000.78,0000.17,0000.12,0000.16,-000.09,0000.18,19.3,26.1,,00.0,0636.1,31.0
2021-12-07T04:06:00Z,00000200,01000000,-000.48,0000.13,-000.04,0000.28,-000.18,-000.10,-000.08,0000.05,-000.25,19.3,26.0,,00.0,0636.1,31.0
2021-12-07T04:07:00Z,00000200,01000000,-000.23,0000.41,0000.24,0000.39,0000.16,-000.06,0000.18,-000.19,0000.04,19.3,26.0,,00.0,0636.1,31.0
2021-12-07T04:08:00Z,00000200,01000000,0000.42,0000.03,0000.03,0000.86,0000.02,0000.09,-000.35,0000.11,-000.11,19.3,26.0,,00.0,0636.2,31.0
2021-12-07T04:09:00Z,00000200,01000000,-000.76,0000.28,0000.05,0000.02,0000.31,0000.20,-000.01,-000.27,-000.04,19.4,26.0,,00.0,0636.2,31.0
2021-12-07T04:10:00Z,00000200,01000000,-000.19,0000.51,-000.16,-000.00,0000.27,-000.17,-000.18,0000.09,0000.14,19.4,26.0,,00.0,0636.2,31.1
2021-12-07T04:11:00Z,00000200,01000000,-000.81,0000.06,-000.22,0000.08,0000.17,-000.08,0000.12,0000.15,-000.36,19.5,26.0,,00.0,0636.2,31.1
2021-12-07T04:12:00Z,00000200,01000000,0000.56,0000.22,-000.04,0000.34,-000.07,-000.11,0000.02,-000.39,0000.05,19.5,26.1,,00.0,0636.2,31.1
2021-12-07T04:13:00Z,00000200,01000000,0000.04,0000.41,0000.04,0000.05,0000.05,-000.19,-000.09,0000.11,0000.04,19.5,26.1,,00.0,0636.2,31.1
2021-12-07T04:14:00Z,00000200,01000000,0000.02,0000.08,0000.16,0000.81,0000.02,-000.10,0000.02,0000.10,0000.02,19.5,26.1,,00.0,0636.2,31.1
2021-12-07T04:15:00Z,00000200,01000000,0000.15,0000.14,-000.06,0000.23,0000.02,-000.05,0000.11,0000.26,0000.03,19.4,26.1,,00.0,0636.2,31.1
2021-12-07T04:16:00Z,00000200,01000000,-000.07,-000.01,0000.18,0000.17,0000.17,-000.02,-000.04,-000.35,0000.01,19.3,26.0,,00.0,0636.2,31.1
2021-12-07T04:17:00Z,00000200,01000000,0000.53,0000.13,-000.07,-000.28,0000.11,-000.08,-000.37,-000.21,-000.22,19.3,26.0,,00.0,0636.2,31.0
2021-12-07T04:18:00Z,00000200,01000000,-000.36,0000.18,-000.26,-000.07,0000.23,-000.18,-000.24,-000.11,0000.08,19.2,26.0,,00.0,0636.2,31.0
2021-12-07T04:19:00Z,00000200,01000000,-000.75,-000.04,0000.18,0000.27,0000.40,-000.11,0000.27,-000.08,-000.08,19.2,25.9,,00.0,0636.2,31.0
2021-12-07T04:20:00Z,00000200,01000000,-000.15,0000.06,-000.11,0000.14,-000.27,0000.26,-000.04,0000.10,0000.04,19.1,25.9,,00.0,0636.1,31.0
2021-12-07T04:21:00Z,00000200,01000000,-000.52,0000.38,-000.15,0000.49,0000.10,-000.27,-000.01,0000.23,0000.14,19.1,25.8,,00.0,0636.1,31.0
2021-12-07T04:22:00Z,00000200,01000000,-000.13,-000.15,-000.10,0000.63,0000.07,-000.06,0000.29,-000.12,0000.19,19.1,25.8,,00.0,0636.1,31.0
2021-12-07T04:23:00Z,00000200,01000000,0000.11,-000.02,-000.14,0000.86,0000.22,-000.10,-000.09,-000.01,-000.40,19.1,25.8,,00.0,0636.1,31.0
2021-12-07T04:24:00Z,00000200,01000000,0000.13,0000.37,-000.41,0000.24,-000.03,-000.40,-000.28,0000.13,-000.08,19.2,25.8,,00.0,0636.2,31.0
2021-12-07T04:25:00Z,00000200,01000000,-000.35,0000.03,0000.16,0000.43,0000.02,-000.28,-000.02,-000.22,0000.09,19.3,25.8,,00.0,0636.2,31.0
2021-12-07T04:26:00Z,00000200,01000000,0000.04,0000.17,0000.20,0000.70,0000.21,-000.21,0000.47,0000.58,0000.37,19.3,25.8,,00.0,0636.2,31.0
2021-12-07T04:27:00Z,00000200,01000000,-000.25,0000.13,0000.09,0000.24,0000.22,-000.02,-000.32,-000.33,-000.01,19.4,25.9,,00.0,0636.2,31.1
2021-12-07T04:28:00Z,00000200,01000000,-000.62,0000.24,0000.21,0001.23,-000.04,0000.14,0000.14,0000.09,-000.15,19.4,25.9,,00.0,0636.2,31.1
2021-12-07T04:29:00Z,00000200,01000000,-000.53,-000.02,0000.24,0000.44,-000.01,-000.02,-000.18,-000.12,-000.01,19.5,25.9,,00.0,0636.2,31.1
2021-12-07T04:30:00Z,00000200,01000000,-000.79,0000.35,-000.21,0000.34,-000.05,-000.06,-000.02,0000.09,-000.05,19.5,25.9,,00.0,0636.2,31.1
2021-12-07T04:31:00Z,00000200,01000000,-000.36,0000.26,-000.08,0000.64,0000.35,0000.12,0000.13,-000.37,-000.10,19.5,26.0,,00.0,0636.2,31.1
2021-12-07T04:32:00Z,00000200,01000000,0000.30,0000.26,-000.36,0000.18,-000.32,0000.05,-000.24,-000.22,-000.32,19.5,26.0,,00.0,0636.2,31.1
2021-12-07T04:33:00Z,00000200,01000000,-000.67,0000.46,-000.17,0000.24,0000.17,-000.08,-000.18,-000.02,0000.31,19.5,26.0,,00.0,0636.2,31.1
2021-12-07T04:34:00Z,00000200,01000000,-000.48,0000.45,0000.00,0000.58,0000.33,-000.24,-000.06,-000.03,-000.34,19.5,26.0,,00.0,0636.2,31.1
2021-12-07T04:35:00Z,00000200,01000000,0000.01,0000.20,-000.09,-000.00,-000.09,-000.27,0000.23,0000.20,0000.11,19.4,25.9,,00.0,0636.2,31.0
2021-12-07T04:36:00Z,00000200,01000000,-000.45,0000.21,0000.00,-000.10,0000.38,0000.06,-000.12,-000.11,0000.07,19.4,25.9,,00.0,0636.2,31.0
2021-12-07T04:37:00Z,00000200,01000000,-000.47,0000.29,0000.08,-000.20,0000.04,-000.33,0000.36,0000.28,0000.07,19.4,25.9,,00.0,0636.2,31.0
2021-12-07T04:38:00Z,00000200,01000000,-000.89,0000.08,0000.04,-000.38,-000.09,-000.00,-000.01,0000.17,0000.46,19.4,25.9,,00.0,0636.2,31.0
2021-12-07T04:39:00Z,00000200,01000000,0000.11,0000.42,-000.08,0001.39,0000.25,-000.01,0000.13,0000.08,-000.22,19.4,25.9,,00.0,0636.2,31.1
2021-12-07T04:40:00Z,00000200,01000000,-000.51,0000.27,-000.05,0000.40,-000.29,0000.06,-000.00,0000.01,0000.05,19.5,25.9,,00.0,0636.2,31.1
2021-12-07T04:41:00Z,00000200,01000000,0000.15,0000.12,-000.06,0000.60,0000.14,-000.42,-000.11,0000.06,0000.12,19.6,25.9,,00.0,0636.2,31.1
2021-12-07T04:42:00Z,00000200,01000000,-000.60,0000.46,0000.05,0000.60,0000.26,0000.07,-000.35,-000.74,-000.44,19.6,26.0,,00.0,0636.2,31.1
2021-12-07T04:43:00Z,00000200,01000000,0000.00,0000.43,0000.09,0000.18,-000.04,-000.11,-000.48,-000.05,-000.42,19.7,26.0,,00.0,0636.3,31.1
2021-12-07T04:44:00Z,00000200,01000000,0000.12,0000.12,0000.13,0000.51,0000.22,-000.47,-000.47,-000.48,-000.33,19.7,26.0,,00.0,0636.2,31.1
2021-12-07T04:45:00Z,00000200,01000000,-001.34,0000.09,-000.15,0000.53,0000.40,-000.16,0000.16,0000.08,0000.39,19.8,26.0,,00.0,0636.2,31.1
2021-12-07T04:46:00Z,00000200,01000000,-000.18,0000.31,-000.00,0000.50,-000.12,-000.03,0000.04,-000.06,-000.15,19.8,26.1,,00.0,0636.2,31.1
2021-12-07T04:47:00Z,00000200,01000000,-000.32,0000.26,-000.24,0000.14,0000.03,-000.35,0000.10,0000.19,0000.19,19.8,26.1,,00.0,0636.2,31.1
2021-12-07T04:48:00Z,00000200,01000000,-000.15,0000.11,-000.33,0000.50,-000.09,0000.20,0000.38,0000.26,-000.26,19.8,26.1,,00.0,0636.2,31.1
2021-12-07T04:49:00Z,00000200,01000000,0000.69,0000.32,0000.05,0000.32,-000.12,-000.21,-000.03,-000.11,0000.23,19.7,26.1,,00.0,0636.1,31.1
2021-12-07T04:50:00Z,00000200,01000000,-000.49,0000.33,0000.09,0000.44,0000.44,0000.17,-000.11,-000.04,-000.08,19.6,26.1,,00.0,0636.2,31.1
2021-12-07T04:51:00Z,00000200,01000000,-000.20,0000.16,0000.41,0000.11,0000.27,0000.19,-000.05,0000.30,0000.33,19.6,26.0,,00.0,0636.2,31.1
2021-12-07T04:52:00Z,00000200,01000000,-000.53,0000.04,-000.01,0000.67,-000.02,-000.25,0000.29,0000.31,0000.03,19.6,26.0,,00.0,0636.2,31.1
2021-12-07T04:53:00Z,00000200,01000000,-000.33,0000.60,0000.01,0000.44,-000.20,0000.08,0000.54,0000.18,0000.22,19.6,26.0,,00.0,0636.2,31.1
2021-12-07T04:54:00Z,00000200,01000000,-001.28,0000.28,-000.26,0000.04,-000.04,-000.27,0000.00,0000.36,0000.37,19.6,26.0,,00.0,0636.2,31.1
2021-12-07T04:55:00Z,00000200,01000000,-000.22,0000.12,0000.19,0000.29,-000.03,-000.17,0000.33,0000.28,0000.02,19.7,26.1,,00.0,0636.2,31.1
2021-12-07T04:56:00Z,00000200,01000000,-001.13,0000.55,0000.09,-000.25,-000.00,0000.36,0000.09,0000.18,-000.11,19.7,26.1,,00.0,0636.2,31.1
2021-12-07T04:57:00Z,00000200,41000000,,,,,,,0000.31,-000.02,0000.23,19.8,26.1,,00.0,0636.2,31.1
2021-12-07T04:58:00Z,00000200,61000000,,,,,,,-000.55,-000.59,-000.05,19.6,26.2,,00.0,0635.4,31.1
2021-12-07T04:59:00Z,00000200,21000000,,,,,,,0000.09,-000.02,-000.37,19.6,26.3,,00.0,0635.4,31.1
